Regional Weather Roundup
Issued by NWS

Home | Current Version | Previous Version | Text Only | Print | Product List | Glossary Off
Versions: 1 2 3 4 5 6 7 8 9 10 11 12 13 14 15 16 17 18 19 20 21 22 23 24 25 26 27 28 29 30 31 32 33 34 35 36 37 38 39 40 41 42 43 44 45 46 47 48 49 50

000
ASUS43 KLOT 191158
RWRIL

ILLINOIS REGIONAL WEATHER ROUNDUP
NATIONAL WEATHER SERVICE CHICAGO/ROMEOVILLE IL
600 AM CST FRI DEC 19 2014

NOTE: "FAIR" INDICATES FEW OR NO CLOUDS BELOW 12,000 FEET WITH NO
SIGNIFICANT WEATHER AND/OR OBSTRUCTIONS TO VISIBILITY.

* THESE STATIONS ARE NOT UNDER NWS QUALITY CONTROL. THEY ALSO MAY NOT
  REPORT WEATHER SUCH AS PRECIPITATION OR FOG.

ILZ001-002-007-009-015-016-024-191300-
NORTHWEST ILLINOIS

CITY           SKY/WX    TMP DP  RH WIND       PRES   REMARKS
MOLINE         CLEAR     17  13  84 CALM      30.30R
6HR MIN TEMP:  15; 6HR MAX TEMP:  19;

$$

ILZ003-004-008-010-011-017-018-191300-
NORTH CENTRAL ILLINOIS

CITY           SKY/WX    TMP DP  RH WIND       PRES   REMARKS
ROCKFORD       NOT AVBL
$$

ILZ005-006-012>014-019>023-191300-
NORTHEAST ILLINOIS

CITY           SKY/WX    TMP DP  RH WIND       PRES   REMARKS
CHICAGO-OHARE  CLOUDY    28  22  78 N6        30.27R WCI  22
6HR MIN TEMP:  27; 6HR MAX TEMP:  28; 6HR PCP: TRACE;

CHICAGO-MIDWAY NOT AVBL
AURORA         CLOUDY    25  20  81 CALM      30.28S
6HR MIN TEMP:  24; 6HR MAX TEMP:  26;

WAUKEGAN       NOT AVBL
DUPAGE AIRPORT CLOUDY    27  22  81 NW3       30.27R
6HR MIN TEMP:  26; 6HR MAX TEMP:  27;

WHEELING       CLOUDY    28  22  78 N6        30.29S WCI  22
6HR MIN TEMP:  28; 6HR MAX TEMP:  28;

NORTHERLY ISL    N/A     30  23  75 MISG        N/A
$$

LMZ740>746-191300-
SOUTHERN LAKE MICHIGAN

STATION/POSITION SKY/WX   TEMP    WIND        PRES    VSBY  WAVE
                          AIR SEA DIR/SP/G                  HT/PER
                          (F)     (DEG/KT/KT) (MB)    (MI)  (FT/S)
WAUKEGAN HARBOR            27     290/  6/ 13   N/A
HARRISON CRIB              29     320/  8/  9   N/A
BURNHAM HARBOR             30     320/  6/  8   N/A
CALUMET HARBOR             29     290/  5/  7 1023.8S
$$

ILZ025>027-034>036-040-047-049-050-058-095>099-191300-
WEST-CENTRAL ILLINOIS

CITY           SKY/WX    TMP DP  RH WIND       PRES   REMARKS
$$

ILZ028>032-037-038-041>044-048-051>054-059>061-191300-
CENTRAL ILLINOIS

CITY           SKY/WX    TMP DP  RH WIND       PRES   REMARKS
PEORIA         NOT AVBL
SPRINGFIELD    CLEAR     25  21  85 NE5       30.30S WCI  19
6HR MIN TEMP:  25; 6HR MAX TEMP:  30;

TAYLORVILLE    NOT AVBL
$$

ILZ033-039-045-046-055>057-062-063-191300-
EAST-CENTRAL ILLINOIS

CITY           SKY/WX    TMP DP  RH WIND       PRES   REMARKS
MATTOON        CLEAR     21  18  88 N3        30.28F
$$

ILZ079-100>102-191300-
SOUTHWEST ILLINOIS

CITY           SKY/WX    TMP DP  RH WIND       PRES   REMARKS
CAHOKIA*       CLOUDY    31  27  85 NE6       30.28S WCI  25
$$

ILZ064>066-069>071-074>076-080>082-084>086-088>090-092>094-191300-
SOUTH-CENTRAL ILLINOIS

CITY           SKY/WX    TMP DP  RH WIND       PRES   REMARKS
CARBONDALE     CLOUDY    32  26  78 CALM      30.30R
6HR MIN TEMP:  31; 6HR MAX TEMP:  32;

$$

ILZ067-068-072-073-078-083-087-091-191300-
SOUTHEAST ILLINOIS

CITY           SKY/WX    TMP DP  RH WIND       PRES   REMARKS
$$

ABBREVIATIONS USED IN REMARKS
   TC - TEMPERATURE IN CELSIUS
  WCI - WIND CHILL INDEX
   HX - HEAT INDEX
  VSB - VISIBILITY
$$



USA.gov is the U.S. government's official web portal to all federal, state and local government web resources and services.